DECAYED
Showing default

DIDO 3, 46284 (Decayed)

Orbit data source: Space-Track

DIDO 3, 46284 was a payload satellite owned by Space Pharma (IL) in LEO that was launched on Thu, 03 Sep 2020 UTC via a VEGA launch vehicle from the French Guiana (FRGUI). Payload-class satellites include a variety of spacecraft equipped with specific instruments for various scientific and technological missions. These include communications satellites like Starlink; space stations such as the ISS; scientific satellites like the Hubble; Earth observation satellites from companies like Planet Labs, Umbra, and HawkEye 360; GPS; miniature CubeSats for education and research; and military/defense satellites.

Not visible in the next 10 days
Identifier
46284, 2020-061N
Orbit
Decayed
Country
Flag of UnknownUnknown / ISRA
Related business
Flag of CHSpacePharma (CH)
Manufacturer
Space Pharma
Mission
Decayed Commercial Microgravity
Bus & Motor
CUBESAT 3U, Unknown motor
Mass
4 kg wet, 4 kg dry
Launch date (UTC)
2020-09-03 (5 years ago)
Launch vehicle
VEGA
Launch site
French Guiana (FRGUI)
Object type
Payload
Rocket body
Debris
Shape & HBR
Box, Unknown HBR
Radar Cross Section
0.035 m², Medium (>0.1 m² and < 1m²)

Expand to show TLE details & history
Last TLE update: 7 months ago

TLE from 7 months ago
0 DIDO 3
1 46284U 20061N   25081.48766028  .07487664  24492-5  76787-3 0  9996
2 46284  97.2679 159.5651 0011148 273.5907  86.4116 16.37766130252652
Epoch: 2025-03-22T11:42Z
TLE epoch observation values (Epoch: 2025-03-22T11:42:13.848Z)
Latitude
-0.00006°
Longitude
163.77539°
Altitude
174.555 km
Speed
7.802 km/s
True Right ascension
10h 38m 15s
True Declination
0° 00' 00"
Sunlit
Object was in full shadow at epoch
Visualization orbit readout
Latitude
Unknown
Longitude
Unknown
Altitude
Unknown
Speed
Unknown
Apparent Right ascension
Unknown
Apparent Declination
Unknown
Sunlit
N/A
Visualization observer readout
Local Sidereal Time
08:40:41
Azimuth
Unknown
Elevation
Unknown
Doppler factor
Unknown
Orbital elements
Apogee altitude
175.855 km
Perigee altitude
161.258 km
Semi-major axis
6,546.693 km
Eccentricity
0.00111
Inclination
97.2679°
RAAN
159.5651°
Arg. of periapsis
273.5907°
True anomaly
86.53911°
Mean anomaly
86.4116°
Eccentric anomaly
86.47535°
Mean motion
4.09742 °/min
Orbital period
87.86 mins
BSTAR
0.00076787
Loading maneuver chart data...
Computing Atmospheric mass density...
Loading historical data...
Loading historical data...
Loading historical data...
Loading historical data...
Loading historical data...
Loading historical data...
Loading historical data...

Documentation

Showing up to 5 results
|